Wind_Speed
7 10 9 7 7 6 6 5 4 3 3 3 5 7 10 13 14 14 13 12 10 7 5 3 3 3 4 4 4 4 4 4 4 4 4 4 2 0 1 2 4 5 4
4 8 9 8 7 7 7 7 5 4 3 2 1 3 7 10 13 14 14 13 12 10 8 6 4 4 4 4 4 3 3 3 4 4 4 3 2 1 1 2 3 5 5
1 3 6 8 8 8 9 10 9 7 7 7 5 4 5 7 10 12 13 12 11 10 9 7 5 4 4 4 5 3 2 3 4 5 3 3 2 2 3 3 4 5 4
1 1 3 5 6 9 11 12 12 12 11 11 10 9 8 7 8 8 10 10 10 9 9 7 6 4 4 5 5 4 3 4 3 3 3 3 4 5 5 5 5 5 5
2 0 2 4 5 8 10 13 14 15 15 15 14 13 12 10 9 8 7 7 8 8 8 7 6 6 5 4 4 3 3 4 4 3 3 4 5 6 6 6 6 7 6
1 1 4 4 5 7 8 11 15 17 18 18 17 17 15 15 14 12 9 8 7 6 6 5 5 5 5 5 4 3 3 4 5 4 4 5 6 5 6 5 6 7 7
5 4 3 2 2 4 5 6 11 16 19 20 20 20 20 18 17 16 14 12 10 8 7 6 4 3 3 4 5 4 4 5 6 6 6 5 6 6 7 7 8 8 8
6 6 6 6 4 3 5 6 6 9 14 19 23 24 24 23 22 20 18 17 16 13 10 9 7 6 5 5 4 4 4 5 7 8 8 7 7 7 7 6 6 9 9
11 9 9 10 9 9 9 9 10 12 13 15 20 24 26 27 27 25 23 21 20 18 16 13 11 10 9 8 6 5 4 5 7 8 10 10 8 9 9 8 6 8 12
18 17 16 15 14 13 11 10 11 11 12 15 18 22 26 28 29 29 28 26 25 23 21 19 16 14 12 12 10 8 7 7 7 9 10 12 11 11 11 11 10 9 11
21 22 22 21 20 19 16 14 14 13 12 13 15 19 25 29 31 32 31 30 28 27 26 25 22 19 17 16 15 12 11 10 10 10 11 11 12 13 13 12 13 12 13
26 25 26 26 25 25 23 22 19 19 19 17 17 20 22 28 32 34 34 33 31 31 30 30 28 26 23 20 19 17 15 15 14 13 14 12 12 13 14 14 14 14 12
31 30 31 30 30 29 29 29 27 24 24 23 21 21 20 23 30 34 36 35 35 34 34 33 32 29 27 26 24 20 20 20 18 17 17 15 14 14 15 15 15 16 16
35 36 35 35 34 33 34 33 33 32 30 27 22 19 18 20 24 30 37 38 37 38 37 37 35 33 31 29 28 26 24 24 23 21 21 19 18 18 17 16 16 17 18
42 42 42 40 39 38 35 36 34 33 33 29 26 21 19 19 23 25 29 37 41 40 40 40 38 37 34 33 33 31 30 27 27 26 25 23 22 21 21 19 19 18 19
39 42 42 42 42 40 37 34 36 35 34 31 29 25 23 22 23 25 27 31 37 42 42 41 42 41 39 38 38 35 34 32 31 30 30 29 27 25 24 23 23 21 21
33 34 35 38 38 36 36 35 36 37 35 33 30 29 28 25 22 22 23 26 35 39 42 44 44 42 42 43 42 40 40 38 35 35 34 33 31 30 29 28 27 26 25
28 28 28 27 30 34 35 35 34 36 37 35 32 29 27 23 22 20 19 21 22 26 37 40 43 44 45 46 46 45 44 43 40 39 38 37 37 34 33 32 31 30 30
29 29 28 26 24 25 31 35 33 36 36 35 34 30 26 24 22 20 19 20 22 26 29 33 40 43 46 46 50 49 48 48 46 45 43 40 39 40 36 36 35 35 33
29 29 28 26 24 22 22 27 29 34 36 36 34 33 32 29 25 24 23 23 25 26 29 34 38 38 40 47 50 52 59 53 50 46 42 44 43 45 43 38 41 38 38
27 28 27 26 25 23 21 23 27 31 35 38 39 38 36 33 29 26 25 27 29 31 30 31 37 40 40 40 44 50 53 47 49 51 41 33 55 50 47 47 55 52 38
27 28 28 28 28 24 23 24 27 31 35 37 38 38 38 35 31 29 29 28 30 34 32 31 34 37 40 40 44 43 47 48 47 38 39 37 29 29 40 61 57 54 47
26 26 23 25 25 25 23 25 28 31 34 37 35 35 35 34 34 32 31 30 31 33 31 31 33 36 38 39 41 44 47 49 47 47 42 39 36 35 33 37 50 56 54
21 21 18 18 25 26 24 26 29 31 28 35 37 34 33 34 34 32 29 31 34 35 35 34 35 35 38 37 38 43 44 44 44 47 47 43 41 40 38 35 39 41 51
14 17 21 26 29 26 28 29 33 35 31 33 36 38 35 31 35 33 31 37 39 41 35 36 39 38 38 38 37 38 42 41 42 43 43 42 39 44 41 40 40 39 45
15 16 18 20 23 26 28 35 34 34 38 38 40 40 42 35 37 32 36 39 41 40 38 37 39 40 39 39 37 37 38 40 42 42 41 43 43 42 41 40 42 45 45
Wind_Direction
283 245 249 245 236 226 211 187 169 151 112 74 36 23 18 17 17 18 21 22 19 13 0 338 299 274 271 269 275 276 264 264 264 276 277 267 270 288 105 101 117 121 115
258 244 246 246 251 256 250 240 230 216 209 198 266 353 1 6 14 14 14 19 19 13 4 352 330 307 296 291 287 287 298 287 284 285 285 272 254 172 164 153 149 139 140
282 256 253 251 256 260 259 253 249 247 242 242 244 276 319 339 353 8 10 14 19 20 15 8 358 330 315 305 299 297 300 292 299 302 296 286 247 220 198 183 179 165 157
78 266 238 246 260 265 266 262 258 252 253 254 255 257 270 295 319 342 356 3 12 16 19 20 16 358 339 316 303 302 303 294 293 305 295 264 245 234 221 203 194 183 171
136 280 290 280 268 261 260 261 261 259 258 261 262 263 266 270 281 296 317 340 355 2 9 17 22 17 358 328 310 302 292 284 291 288 274 258 251 243 239 219 207 200 189
185 314 323 314 300 277 264 261 259 260 260 260 264 266 265 265 267 272 280 297 318 331 338 356 13 18 4 340 323 308 295 274 272 267 257 249 251 244 226 222 213 222 209
236 244 262 289 350 339 337 298 276 269 266 264 261 263 265 265 265 266 268 274 281 292 301 312 333 343 337 332 338 330 311 276 268 266 257 248 251 252 222 221 225 227 216
243 252 249 251 250 276 304 301 290 282 276 273 271 268 265 265 265 265 265 266 268 270 276 286 293 295 292 303 324 325 312 284 268 266 267 261 252 249 222 242 246 225 230
219 222 237 249 256 265 274 276 277 277 274 271 267 266 267 267 264 263 261 261 262 263 263 266 269 272 276 282 288 290 291 281 268 263 265 265 256 243 239 237 233 235 240
236 236 244 246 251 255 260 268 280 289 276 272 272 266 262 260 261 261 260 258 259 261 260 259 258 258 262 266 268 270 267 263 262 259 257 258 256 249 247 243 242 252 245
248 255 262 263 260 257 261 272 285 292 289 287 282 279 269 263 260 259 259 258 258 259 260 259 257 256 255 257 259 259 258 256 255 256 255 253 252 247 249 248 246 259 256
254 259 263 266 272 275 275 273 277 284 290 294 293 298 287 267 259 256 256 256 255 255 256 258 258 257 256 259 260 258 257 252 252 253 254 254 254 250 249 247 246 250 250
255 257 263 265 268 271 274 279 279 279 277 277 279 289 295 280 266 258 254 253 254 254 255 256 257 258 259 260 261 256 255 253 250 252 254 254 255 252 249 248 244 243 246
260 261 261 262 264 266 266 266 271 276 276 281 274 279 281 277 273 269 261 253 252 253 254 254 256 257 257 258 259 261 256 255 253 247 251 250 250 251 249 248 247 242 242
263 265 265 264 265 265 262 261 261 258 267 271 270 269 275 274 271 272 269 262 255 251 252 252 253 254 254 254 254 254 257 254 254 251 247 246 248 248 247 246 245 245 245
264 266 267 268 269 269 265 262 260 258 259 261 266 265 265 267 270 269 264 259 259 258 255 254 253 252 252 252 253 252 252 254 253 253 251 248 246 247 247 247 249 242 243
272 271 267 266 264 264 264 259 256 257 260 262 258 257 263 271 270 265 266 263 254 254 259 258 257 257 256 255 254 254 253 251 248 252 253 251 248 245 245 244 244 247 242
279 277 276 272 265 261 258 257 254 257 259 258 254 254 261 268 266 256 262 271 271 265 260 260 257 257 259 258 257 256 255 255 253 249 248 250 249 245 246 248 245 245 248
283 281 281 281 275 262 253 252 248 247 249 251 250 250 256 260 260 263 268 276 283 280 272 265 260 260 257 257 258 257 255 254 254 252 251 247 248 250 245 251 248 250 249
291 289 286 282 279 271 258 249 247 245 244 247 249 250 253 255 250 257 265 275 282 281 280 270 264 261 259 257 260 260 255 251 252 249 250 244 247 250 250 252 255 249 254
296 297 296 292 288 281 259 236 241 251 248 249 251 252 253 252 253 257 263 273 282 292 277 269 265 265 260 258 258 258 260 267 260 262 266 264 240 237 245 238 251 245 253
292 291 290 288 283 282 271 257 252 251 255 254 255 255 253 253 256 260 265 272 283 291 280 271 263 261 261 258 260 262 265 268 271 265 269 287 280 245 256 249 239 243 252
279 278 281 283 286 278 275 271 261 261 259 261 258 256 254 257 259 257 264 274 283 286 281 276 270 264 260 256 257 259 261 264 271 269 269 268 265 258 255 241 234 239 247
285 286 292 304 287 297 279 272 273 268 264 262 262 253 253 256 257 259 266 276 280 284 280 276 274 270 266 260 256 256 257 260 266 268 266 263 261 256 247 247 240 245 248
316 315 304 293 294 293 284 271 270 270 262 261 254 255 248 252 258 265 271 271 277 282 274 280 275 270 269 266 261 259 258 254 256 259 263 265 261 258 258 253 244 249 253
349 336 322 315 304 292 283 273 261 269 262 265 252 254 249 245 248 266 272 276 279 280 277 278 274 271 268 268 266 263 261 259 254 251 256 258 257 260 259 254 247 245 247
Height
3171 3171 3172 3173 3174 3174 3174 3174 3175 3175 3175 3176 3177 3178 3177 3177 3177 3175 3174 3174 3173 3173 3172 3173 3173 3174 3174 3174 3175 3176 3176 3175 3174 3173 3174 3174 3174 3174 3173 3173 3173 3172 3173
3169 3171 3172 3173 3173 3174 3174 3175 3175 3175 3175 3175 3177 3178 3178 3177 3177 3177 3176 3175 3174 3173 3173 3173 3174 3175 3175 3175 3175 3175 3175 3174 3174 3173 3173 3173 3173 3173 3173 3173 3173 3173 3173
3169 3170 3172 3172 3173 3173 3173 3174 3174 3175 3175 3176 3176 3177 3178 3178 3178 3177 3176 3176 3175 3175 3174 3174 3175 3175 3174 3174 3175 3175 3174 3173 3173 3172 3172 3172 3172 3172 3173 3173 3174 3173 3174
3169 3170 3170 3172 3172 3172 3172 3173 3174 3174 3175 3175 3176 3176 3177 3178 3178 3177 3177 3177 3176 3176 3175 3175 3174 3174 3174 3174 3174 3174 3173 3173 3172 3172 3172 3172 3172 3172 3172 3173 3173 3173 3173
3169 3170 3170 3171 3171 3171 3171 3172 3172 3173 3174 3174 3175 3175 3176 3176 3177 3177 3177 3177 3176 3176 3175 3175 3175 3174 3174 3174 3174 3173 3173 3172 3172 3172 3172 3172 3171 3171 3172 3172 3173 3173 3173
3169 3169 3169 3169 3170 3170 3170 3170 3171 3171 3172 3172 3173 3173 3174 3175 3175 3176 3176 3176 3175 3175 3174 3175 3175 3174 3174 3173 3173 3173 3172 3172 3172 3171 3171 3171 3171 3171 3171 3172 3172 3172 3172
3168 3168 3167 3167 3168 3169 3169 3169 3169 3169 3170 3170 3170 3170 3171 3172 3172 3173 3174 3174 3174 3174 3173 3173 3174 3174 3173 3173 3172 3172 3172 3171 3172 3171 3171 3170 3170 3170 3170 3171 3171 3171 3171
3165 3165 3165 3165 3165 3165 3166 3166 3166 3166 3166 3167 3168 3168 3168 3169 3169 3170 3171 3172 3172 3172 3172 3172 3172 3172 3172 3171 3171 3171 3171 3171 3170 3170 3170 3169 3169 3169 3169 3169 3170 3169 3170
3159 3161 3162 3162 3163 3163 3163 3163 3163 3163 3163 3162 3163 3164 3165 3166 3166 3167 3168 3168 3169 3169 3169 3170 3170 3170 3170 3170 3170 3170 3170 3169 3168 3168 3168 3168 3168 3168 3167 3168 3168 3168 3168
3155 3156 3156 3157 3158 3159 3159 3159 3159 3158 3158 3159 3159 3159 3159 3160 3161 3162 3163 3164 3165 3165 3166 3166 3166 3167 3167 3167 3167 3167 3167 3167 3167 3166 3166 3165 3166 3166 3166 3166 3166 3167 3166
3153 3153 3154 3154 3154 3155 3155 3155 3156 3156 3155 3155 3155 3155 3155 3155 3155 3156 3158 3159 3161 3161 3161 3162 3162 3163 3163 3164 3164 3164 3164 3165 3165 3164 3163 3163 3163 3163 3163 3163 3164 3164 3164
3150 3150 3150 3151 3151 3152 3152 3151 3151 3152 3152 3151 3151 3150 3149 3149 3150 3150 3152 3153 3155 3155 3156 3156 3157 3158 3159 3160 3161 3161 3161 3161 3161 3161 3161 3160 3160 3160 3161 3160 3160 3160 3161
3146 3146 3145 3146 3146 3146 3147 3147 3146 3146 3146 3145 3145 3144 3144 3143 3144 3145 3145 3147 3148 3149 3149 3150 3151 3153 3154 3156 3156 3157 3157 3157 3158 3158 3158 3158 3158 3157 3157 3158 3157 3157 3157
3139 3139 3139 3139 3139 3140 3140 3140 3140 3140 3139 3140 3139 3138 3137 3137 3137 3139 3139 3140 3140 3142 3143 3144 3145 3147 3148 3150 3151 3152 3153 3153 3153 3153 3153 3154 3154 3154 3154 3154 3154 3154 3153
3130 3130 3130 3130 3131 3131 3132 3132 3133 3132 3132 3133 3133 3133 3132 3132 3132 3132 3133 3133 3134 3135 3136 3137 3139 3140 3142 3143 3145 3146 3147 3147 3147 3147 3147 3148 3148 3149 3149 3150 3149 3150 3150
3122 3122 3121 3121 3121 3122 3123 3123 3124 3124 3124 3125 3125 3125 3125 3125 3125 3125 3126 3126 3127 3129 3129 3130 3131 3133 3135 3135 3137 3139 3140 3140 3141 3141 3141 3141 3142 3143 3143 3144 3145 3145 3145
3115 3114 3113 3113 3113 3113 3113 3115 3115 3116 3116 3116 3116 3117 3116 3116 3117 3118 3119 3119 3119 3120 3122 3123 3124 3125 3126 3127 3129 3130 3131 3132 3133 3134 3134 3135 3135 3136 3137 3137 3139 3140 3140
3106 3105 3105 3104 3104 3104 3105 3106 3107 3108 3107 3108 3108 3108 3108 3109 3109 3110 3111 3112 3113 3112 3113 3114 3115 3116 3116 3118 3119 3121 3122 3122 3124 3125 3126 3127 3128 3129 3131 3132 3133 3133 3135
3098 3098 3097 3096 3096 3096 3097 3099 3099 3099 3099 3100 3100 3100 3102 3103 3103 3103 3104 3105 3105 3106 3106 3105 3106 3106 3107 3108 3109 3109 3110 3111 3112 3113 3115 3118 3120 3123 3122 3125 3127 3128 3128
3090 3090 3089 3089 3089 3089 3089 3090 3091 3091 3092 3092 3092 3093 3094 3095 3096 3096 3096 3097 3098 3097 3097 3096 3096 3097 3097 3099 3099 3096 3091 3097 3101 3104 3106 3106 3109 3114 3114 3115 3120 3121 3122
3084 3082 3080 3079 3079 3080 3082 3083 3083 3083 3084 3085 3085 3086 3087 3089 3089 3088 3088 3089 3089 3089 3087 3086 3086 3086 3087 3089 3087 3085 3081 3081 3086 3093 3079 3086 3095 3099 3106 3106 3110 3112 3115
3079 3077 3075 3074 3073 3073 3074 3075 3076 3075 3075 3076 3077 3078 3079 3081 3081 3081 3081 3081 3081 3080 3079 3078 3077 3077 3077 3080 3078 3077 3074 3076 3075 3077 3082 3083 3087 3088 3089 3092 3098 3101 3105
3075 3073 3071 3069 3067 3066 3067 3068 3069 3069 3068 3068 3068 3070 3071 3072 3073 3073 3072 3072 3072 3072 3071 3069 3068 3067 3067 3069 3070 3070 3068 3068 3071 3073 3075 3077 3080 3080 3081 3083 3084 3088 3094
3069 3067 3066 3064 3063 3062 3061 3061 3061 3061 3060 3061 3062 3062 3063 3064 3065 3065 3063 3063 3063 3063 3062 3060 3059 3058 3057 3059 3060 3060 3061 3063 3062 3062 3064 3068 3069 3071 3075 3075 3077 3079 3082
3063 3061 3060 3058 3057 3055 3054 3055 3055 3055 3054 3054 3054 3056 3055 3054 3056 3056 3054 3055 3053 3053 3053 3051 3049 3048 3048 3048 3049 3050 3050 3052 3054 3054 3054 3056 3058 3060 3062 3064 3067 3069 3072
3058 3056 3054 3051 3049 3047 3047 3048 3047 3047 3047 3046 3046 3045 3046 3045 3045 3045 3045 3045 3044 3043 3042 3041 3039 3039 3037 3037 3038 3038 3039 3041 3043 3044 3046 3046 3046 3048 3050 3054 3056 3059 3062